1999 CS3  

Epoch 1999 Feb. 11.0 TT = JDT 2451220.5                 Nakano

M   5.08657              (2000.0)            P               Q

n   0.25004258     Peri.  351.75330     -0.61172995     -0.71903698

a   2.4953228      Node   135.11625     +0.74984448     -0.65988235

e   0.4304474      Incl.   27.86345     +0.25203119     +0.21803922

P   3.94           H   18.5           G   0.15           U   *

Residuals in seconds of arc 

990210 704  1.0+  0.5+    990211 704  0.7+  0.6-    990213 704 (2.8+  0.6-) 

990210 704  1.7+  0.4-    990211 704  1.2-  0.7+    990213 704  1.2+  0.6-  

990210 704  1.3-  1.1-    990211 704  0.9-  0.2+    990213 704  0.5+  0.2+  

990210 704 (2.4+  0.9+)   990211 704  0.5+  1.2+    990213 704  0.0   0.9+  

990211 557  0.4+  0.2+    990211 704  0.2-  0.8-    990213 704  1.1-  1.6+  

990211 557  0.2-  0.1-    990211 704  0.3+  1.6-    990219 402  0.4-  0.0   

990211 557  0.0   0.5+    990211 704  1.2-  0.3-    990219 402  0.1+  0.5-  

990211 704 (0.5-  2.3+)   990211 557  0.5-  0.3-    990219 402  0.2+  0.6-  

990211 704  0.1-  1.7+    990211 557  0.2-  0.1+    990220 402  0.1+  0.2+  

990211 704 (2.4-  0.0 )   990211 557  0.1-  0.1-    990220 402  0.3-  0.2-  

990211 704  0.8-  0.3+    990211 557  0.3+  0.9-    990220 402  0.1-  0.4+  

990211 704  0.5-  0.3-    990212 426  0.1-  0.5-    990225 402  0.2+  1.2-  

990211 704  1.1+  1.3+    990212 426  0.3+  0.2-    990225 402  0.8+  0.1-  

990211 704 (1.1-  2.4+)   990212 426  0.1+  0.1+    990225 402  0.7-  1.5+  

990211 704  0.1-  0.3-    990212 426  0.7+  0.9-                            

 





1999 CS3  

Epoch 1999 Feb. 11.0 TT = JDT 2451220.5                 Nakano

M   5.06619              (2000.0)            P               Q

n   0.24814148     Peri.  351.70562     -0.61126399     -0.71901682

a   2.5080516      Node   135.12071     +0.75035992     -0.65937940

e   0.4328446      Incl.   27.94912     +0.25162736     +0.21962153

P   3.97           H   18.5           G   0.15           U   *





1999 CS3  

Epoch 1999 Feb. 11.0 TT = JDT 2451220.5                 Nakano

M   5.07769              (2000.0)            P               Q

n   0.24870448     Peri.  351.70399     -0.61120734     -0.71918680

a   2.5042652      Node   135.11959     +0.75038670     -0.65932496

e   0.4321491      Incl.   27.92417     +0.25168508     +0.21922805

P   3.96           H   18.5           G   0.15           U   *





–ß‚è‚Ü‚·B